This is the latest recevied weather packets stored in our database for station/object DC9VQ-13. If no packets are shown the sender has not sent any weather packets the latest 10 day(s).
| Time | Temp. | Humidity | Pressure | Rain* | Wind** | Luminosity | Snow |
|---|---|---|---|---|---|---|---|
| 1776993631 | 8.33° C | 62% | 1023.4 hPa | 0 mm | - | - | - |
| 1776993029 | 8.33° C | 62% | 1023.4 hPa | 0 mm | - | - | - |
| 1776992427 | 8.33° C | 62% | 1023.3 hPa | 0 mm | - | - | - |
| 1776991824 | 8.89° C | 61% | 1023.4 hPa | 0 mm | - | - | - |
| 1776991223 | 8.89° C | 60% | 1023.5 hPa | 0 mm | - | - | - |
| 1776990621 | 8.33° C | 60% | 1023.6 hPa | 0 mm | - | - | - |
| 1776990019 | 8.89° C | 61% | 1023.7 hPa | 0 mm | - | - | - |
| 1776989417 | 8.89° C | 60% | 1023.8 hPa | 0 mm | - | - | - |
| 1776988817 | 8.89° C | 59% | 1024 hPa | 0 mm | - | - | - |
| 1776988213 | 9.44° C | 58% | 1024 hPa | 0 mm | - | - | - |
| 1776987611 | 9.44° C | 58% | 1024.1 hPa | 0 mm | - | - | - |
| 1776987009 | 9.44° C | 56% | 1024.2 hPa | 0 mm | - | - | - |
| 1776986407 | 10° C | 56% | 1024.2 hPa | 0 mm | - | - | - |
| 1776985805 | 10° C | 55% | 1024.2 hPa | 0 mm | - | - | - |
| 1776985204 | 10.56° C | 53% | 1024.2 hPa | 0 mm | - | - | - |
| 1776984301 | 10.56° C | 53% | 1024.2 hPa | 0 mm | - | - | - |
| 1776983698 | 11.11° C | 52% | 1024.3 hPa | 0 mm | - | - | - |
| 1776983096 | 11.11° C | 50% | 1024.3 hPa | 0 mm | - | - | - |
| 1776982494 | 11.67° C | 49% | 1024.2 hPa | 0 mm | - | - | - |
| 1776981893 | 11.67° C | 48% | 1024.3 hPa | 0 mm | - | - | - |
| 1776981290 | 11.67° C | 46% | 1024.3 hPa | 0 mm | - | - | - |
| 1776980688 | 11.67° C | 46% | 1024.3 hPa | 0 mm | - | - | - |
| 1776980086 | 12.22° C | 45% | 1024.3 hPa | 0 mm | - | - | - |
| 1776979484 | 12.78° C | 44% | 1024.3 hPa | 0 mm | - | - | - |
| 1776978882 | 12.78° C | 43% | 1024.2 hPa | 0 mm | - | - | - |
* Rain latest hour (hover to see other rain measurements)
** Current wind speed in m/s (hover to see current wind gust speed)